Huntington, WV

11:37 AM EST on December 10, 2019 (GMT -0500)
Tri-State / Ferguson

Weather History for KHTS - October, 2019

Change the Weather History Date:

Friday, October 18, 2019

  Actual Average Record
Temperature  
Mean Temperature 50 °F 56 °F  
Max Temperature 64 °F 68 °F 87 °F (1938)
Min Temperature 35 °F 44 °F 27 °F (1969)
Degree Days  
Heating Degree Days 15 10  
Month to date heating degree days 90 132  
Since 1 July heating degree days 90 190  
Cooling Degree Days 0 0  
Month to date cooling degree days 65 16  
Year to date cooling degree days 1510 1127  
Moisture  
Dew Point 38 °F    
Average Humidity 66    
Maximum Humidity 92    
Minimum Humidity 39    
Precipitation  
Precipitation 0.00 in 0.09 in 1.42 in (1911)
Month to date precipitation 3.29 1.57  
Year to date precipitation 37.76 34.60  
Snow  
Snow 0.00 in 0.00 in T in (1992)
Month to date snowfall 0.0 0.0  
Since 1 September snowfall 0.0 0.0  
Snow Depth 0.00 in    
Sea Level Pressure  
Sea Level Pressure 30.06 in    
Wind  
Wind Speed 2 mph (ENE)    
Max Wind Speed 9 mph    
Max Gust Speed 14 mph    
Visibility 9 miles    
Events Fog    
T = Trace of Precipitation, MM = Missing Value Source: NWS Daily Summary

Daily Weather History Graph

Daily Weather History Graph

Search for Another Location

Airport or City:

Astronomy

Oct. 18, 2019 Rise Set
Actual Time 7:41 AM EDT 6:48 PM EDT
Civil Twilight 7:15 AM EDT 7:15 PM EDT
Nautical Twilight 6:44 AM EDT 7:45 PM EDT
Astronomical Twilight 6:13 AM EDT 8:16 PM EDT
Moon 10:07 PM EDT (10/18) 12:10 PM EDT (10/18)
Length of Visible Light 11h 59m
Length of Day
11h 06m
Waning Gibbous, 79% of the Moon is Illuminated
Oct 18
Waning Gibbous
Oct 21
Last Quarter
Oct 27
New
Nov 4
First Quarter
Nov 12
Full

Hourly Weather History & Observations

Time (EDT) Temp. Windchill Dew Point Humidity Pressure Visibility Wind Dir Wind Speed Gust Speed Precip Events Conditions
12:51 AM 42.1 °F - 37.9 °F 85% 30.01 in 10.0 mi Calm Calm - N/A   Clear
1:51 AM 41.0 °F - 37.9 °F 89% 30.01 in 10.0 mi Calm Calm - N/A   Clear
2:51 AM 39.0 °F 36.8 °F 37.0 °F 93% 30.02 in 9.0 mi SSW 3.5 mph - N/A   Clear
3:51 AM 39.0 °F - 37.0 °F 93% 30.02 in 10.0 mi Calm Calm - N/A   Clear
4:51 AM 37.9 °F - 36.0 °F 93% 30.04 in 9.0 mi Calm Calm - N/A   Clear
5:51 AM 37.0 °F - 35.1 °F 93% 30.05 in 10.0 mi Calm Calm - N/A   Clear
6:51 AM 36.0 °F - 34.0 °F 93% 30.08 in 10.0 mi Calm Calm - N/A   Clear
7:51 AM 35.1 °F - 33.1 °F 92% 30.09 in 10.0 mi Calm Calm - N/A   Clear
8:46 AM 39.2 °F - 37.4 °F 93% 30.10 in 2.5 mi Calm Calm - N/A   Partly Cloudy
8:48 AM 39.2 °F - 37.4 °F 93% 30.10 in 0.8 mi Calm Calm - N/A   Mist
8:51 AM 39.0 °F - 37.9 °F 96% 30.11 in 0.5 mi Calm Calm - N/A Fog Fog
9:02 AM 41.0 °F - 39.0 °F 93% 30.11 in 3.0 mi Calm Calm - N/A   Clear
9:51 AM 45.0 °F 43.5 °F 41.0 °F 86% 30.12 in 4.0 mi North 3.5 mph - N/A   Clear
10:51 AM 52.0 °F - 42.1 °F 69% 30.12 in 10.0 mi Calm Calm - N/A   Clear
11:51 AM 54.0 °F - 39.9 °F 59% 30.12 in 10.0 mi SE 5.8 mph - N/A   Clear
12:51 PM 57.0 °F - 37.9 °F 49% 30.10 in 10.0 mi East 10.4 mph - N/A   Clear
1:51 PM 59.0 °F - 37.9 °F 46% 30.08 in 10.0 mi Variable 3.5 mph - N/A   Clear
2:51 PM 60.1 °F - 37.0 °F 42% 30.06 in 10.0 mi Variable 3.5 mph - N/A   Clear
3:51 PM 60.1 °F - 36.0 °F 41% 30.04 in 10.0 mi ENE 6.9 mph - N/A   Clear
4:51 PM 63.0 °F - 37.0 °F 38% 30.04 in 10.0 mi Calm Calm - N/A   Clear
5:51 PM 61.0 °F - 37.0 °F 41% 30.04 in 10.0 mi NNE 5.8 mph - N/A   Clear
6:51 PM 55.9 °F - 36.0 °F 47% 30.03 in 10.0 mi ENE 3.5 mph - N/A   Clear
7:51 PM 51.1 °F - 37.0 °F 59% 30.03 in 10.0 mi ESE 3.5 mph - N/A   Clear
8:51 PM 48.0 °F - 39.0 °F 71% 30.03 in 10.0 mi Calm Calm - N/A   Clear
9:51 PM 46.9 °F - 39.0 °F 74% 30.04 in 10.0 mi East 3.5 mph - N/A   Clear
10:51 PM 44.1 °F 40.8 °F 39.0 °F 82% 30.03 in 10.0 mi East 5.8 mph - N/A   Clear
11:51 PM 41.0 °F 39.0 °F 37.9 °F 89% 30.00 in 9.0 mi NE 3.5 mph - N/A   Clear